| time (UTC) | temp F | wind direction | speed MPH | gust MPH | rain 1hr in | rain 24hr in | rain mn in | humidity % | barometer mb |
| 20260505073503 | 71 | 180 | 10.0 | 23.0 | 0.00 | 0.00 | 0.00 | 87 | 1009.6 |
| 20260505073003 | 71 | 180 | 10.0 | 23.0 | 0.00 | 0.00 | 0.00 | 87 | 1009.7 |
| 20260505072503 | 71 | 175 | 10.0 | 19.0 | 0.00 | 0.00 | 0.00 | 87 | 1009.7 |
| 20260505072003 | 71 | 170 | 11.0 | 20.0 | 0.00 | 0.00 | 0.00 | 86 | 1009.8 |
| 20260505071504 | 71 | 172 | 11.0 | 23.0 | 0.00 | 0.00 | 0.00 | 86 | 1009.8 |
| 20260505071004 | 71 | 175 | 10.0 | 23.0 | 0.00 | 0.00 | 0.00 | 86 | 1009.9 |
| 20260505070503 | 71 | 178 | 11.0 | 19.0 | 0.00 | 0.00 | 0.00 | 86 | 1010.0 |
| 20260505070004 | 71 | 179 | 11.0 | 22.0 | 0.00 | 0.00 | 0.00 | 86 | 1010.0 |
| 20260505065503 | 71 | 176 | 11.0 | 23.0 | 0.00 | 0.00 | 0.00 | 86 | 1010.1 |
| 20260505065003 | 71 | 178 | 11.0 | 23.0 | 0.00 | 0.00 | 0.00 | 86 | 1010.1 |
| 20260505064524 | 71 | 180 | 11.0 | 23.0 | 0.00 | 0.00 | 0.00 | 86 | 1010.2 |
| 20260505064004 | 71 | 181 | 10.0 | 20.0 | 0.00 | 0.00 | 0.00 | 86 | 1010.2 |
| 20260505063525 | 71 | 172 | 11.0 | 20.0 | 0.00 | 0.00 | 0.00 | 86 | 1010.2 |
| 20260505063003 | 71 | 169 | 10.0 | 20.0 | 0.00 | 0.00 | 0.00 | 86 | 1010.4 |
| 20260505062503 | 71 | 174 | 8.0 | 20.0 | 0.00 | 0.00 | 0.00 | 86 | 1010.5 |
| 20260505062004 | 71 | 175 | 10.0 | 20.0 | 0.00 | 0.00 | 0.00 | 86 | 1010.6 |
| 20260505061525 | 71 | 176 | 10.0 | 20.0 | 0.00 | 0.00 | 0.00 | 86 | 1010.7 |
| 20260505061024 | 71 | 176 | 10.0 | 23.0 | 0.00 | 0.00 | 0.00 | 86 | 1010.7 |
| 20260505060503 | 71 | 175 | 10.0 | 23.0 | 0.00 | 0.00 | 0.00 | 86 | 1010.6 |
| 20260505060004 | 72 | 171 | 8.0 | 19.0 | 0.00 | 0.00 | 0.00 | 85 | 1010.7 |
| 20260505055503 | 72 | 175 | 10.0 | 20.0 | 0.00 | 0.00 | 0.00 | 86 | 1010.7 |
| 20260505055003 | 72 | 175 | 11.0 | 20.0 | 0.00 | 0.00 | 0.00 | 85 | 1010.7 |
| 20260505054504 | 72 | 173 | 11.0 | 20.0 | 0.00 | 0.00 | 0.00 | 85 | 1010.7 |
| 20260505054003 | 72 | 173 | 10.0 | 20.0 | 0.00 | 0.00 | 0.00 | 85 | 1010.6 |
| 20260505053504 | 72 | 172 | 10.0 | 19.0 | 0.00 | 0.00 | 0.00 | 85 | 1010.7 |
| 20260505053004 | 72 | 171 | 10.0 | 23.0 | 0.00 | 0.00 | 0.00 | 85 | 1010.6 |
| 20260505052503 | 72 | 174 | 11.0 | 23.0 | 0.00 | 0.00 | 0.00 | 85 | 1010.6 |
| 20260505052024 | 72 | 171 | 11.0 | 23.0 | 0.00 | 0.00 | 0.00 | 85 | 1010.6 |
| 20260505051503 | 72 | 166 | 10.0 | 20.0 | 0.00 | 0.00 | 0.00 | 85 | 1010.5 |
| 20260505051003 | 72 | 172 | 10.0 | 24.0 | 0.00 | 0.00 | 0.00 | 85 | 1010.5 |
| 20260505050504 | 72 | 173 | 11.0 | 24.0 | 0.00 | 0.00 | 0.00 | 85 | 1010.5 |
| 20260505041503 | 73 | 158 | 7.0 | 17.0 | 0.00 | 0.00 | 0.00 | 83 | 1010.5 |
| 20260505041003 | 73 | 159 | 7.0 | 14.0 | 0.00 | 0.00 | 0.00 | 83 | 1010.6 |
| 20260505040504 | 73 | 164 | 7.0 | 14.0 | 0.00 | 0.00 | 0.00 | 82 | 1010.5 |
| 20260505040024 | 73 | 163 | 7.0 | 18.0 | 0.00 | 0.00 | 0.00 | 82 | 1010.6 |
| 20260505035503 | 73 | 165 | 8.0 | 22.0 | 0.00 | 0.00 | 0.00 | 82 | 1010.6 |
| 20260505035003 | 73 | 169 | 8.0 | 22.0 | 0.00 | 0.00 | 0.00 | 81 | 1010.7 |
| 20260505034503 | 74 | 163 | 8.0 | 19.0 | 0.00 | 0.00 | 0.00 | 81 | 1010.6 |
| 20260505034003 | 74 | 161 | 7.0 | 19.0 | 0.00 | 0.00 | 0.00 | 81 | 1010.6 |
| 20260505033503 | 74 | 166 | 5.0 | 14.0 | 0.00 | 0.00 | 0.00 | 81 | 1010.5 |
| 20260505033024 | 74 | 164 | 6.0 | 14.0 | 0.00 | 0.00 | 0.00 | 81 | 1010.6 |
| 20260505032503 | 74 | 160 | 7.0 | 12.0 | 0.00 | 0.00 | 0.00 | 80 | 1010.4 |
| 20260505032003 | 74 | 166 | 8.0 | 18.0 | 0.00 | 0.00 | 0.00 | 80 | 1010.4 |
| 20260505031503 | 74 | 170 | 10.0 | 18.0 | 0.00 | 0.00 | 0.00 | 80 | 1010.3 |
| 20260505031003 | 74 | 167 | 7.0 | 16.0 | 0.00 | 0.00 | 0.00 | 80 | 1010.5 |
| 20260505030503 | 75 | 161 | 8.0 | 17.0 | 0.00 | 0.00 | 0.00 | 79 | 1010.6 |
| 20260505030004 | 75 | 161 | 8.0 | 17.0 | 0.00 | 0.00 | 0.00 | 79 | 1010.6 |
| 20260505025503 | 75 | 164 | 6.0 | 16.0 | 0.00 | 0.00 | 0.00 | 79 | 1010.6 |
| 20260505025003 | 75 | 163 | 6.0 | 14.0 | 0.00 | 0.00 | 0.00 | 78 | 1010.5 |
| 20260505024524 | 75 | 164 | 6.0 | 13.0 | 0.00 | 0.00 | 0.00 | 78 | 1010.5 |
| 20260505024003 | 75 | 162 | 5.0 | 12.0 | 0.00 | 0.00 | 0.00 | 78 | 1010.6 |
| 20260505023503 | 75 | 163 | 5.0 | 12.0 | 0.00 | 0.00 | 0.00 | 78 | 1010.5 |
| 20260505023003 | 75 | 167 | 6.0 | 12.0 | 0.00 | 0.00 | 0.00 | 77 | 1010.5 |
| 20260505022503 | 76 | 170 | 5.0 | 10.0 | 0.00 | 0.00 | 0.00 | 77 | 1010.5 |
| 20260505022024 | 76 | 162 | 5.0 | 10.0 | 0.00 | 0.00 | 0.00 | 77 | 1010.5 |
| 20260505021503 | 76 | 152 | 6.0 | 12.0 | 0.00 | 0.00 | 0.00 | 76 | 1010.4 |
| 20260505021003 | 76 | 162 | 7.0 | 16.0 | 0.00 | 0.00 | 0.00 | 76 | 1010.3 |
| 20260505020503 | 76 | 163 | 6.0 | 16.0 | 0.00 | 0.00 | 0.00 | 76 | 1010.2 |
| 20260505020003 | 76 | 159 | 6.0 | 14.0 | 0.00 | 0.00 | 0.00 | 75 | 1010.3 |
| 20260505015503 | 76 | 162 | 6.0 | 14.0 | 0.00 | 0.00 | 0.00 | 75 | 1010.2 |
| 20260505015004 | 77 | 162 | 6.0 | 16.0 | 0.00 | 0.00 | 0.00 | 74 | 1010.2 |
| 20260505014525 | 77 | 164 | 6.0 | 16.0 | 0.00 | 0.00 | 0.00 | 74 | 1010.1 |
| 20260505014025 | 77 | 159 | 6.0 | 12.0 | 0.00 | 0.00 | 0.00 | 73 | 1010.3 |
| 20260505013525 | 77 | 155 | 6.0 | 12.0 | 0.00 | 0.00 | 0.00 | 72 | 1010.2 |
| 20260505013004 | 77 | 167 | 6.0 | 12.0 | 0.00 | 0.00 | 0.00 | 70 | 1010.1 |
| 20260505012504 | 78 | 170 | 6.0 | 12.0 | 0.00 | 0.00 | 0.00 | 70 | 1010.1 |
| 20260505012004 | 78 | 168 | 6.0 | 16.0 | 0.00 | 0.00 | 0.00 | 70 | 1010.0 |
| 20260505011504 | 78 | 165 | 7.0 | 16.0 | 0.00 | 0.00 | 0.00 | 69 | 1010.1 |
| 20260505011025 | 78 | 168 | 7.0 | 14.0 | 0.00 | 0.00 | 0.00 | 69 | 1010.0 |
| 20260505010504 | 78 | 168 | 7.0 | 16.0 | 0.00 | 0.00 | 0.00 | 68 | 1009.9 |
| 20260505010004 | 78 | 163 | 8.0 | 16.0 | 0.00 | 0.00 | 0.00 | 68 | 1009.9 |
| 20260505005504 | 79 | 164 | 7.0 | 16.0 | 0.00 | 0.00 | 0.00 | 67 | 1009.9 |
| 20260505005025 | 79 | 165 | 6.0 | 17.0 | 0.00 | 0.00 | 0.00 | 67 | 1010.0 |
| 20260505004504 | 79 | 172 | 8.0 | 18.0 | 0.00 | 0.00 | 0.00 | 66 | 1010.0 |
| 20260505004004 | 79 | 174 | 10.0 | 18.0 | 0.00 | 0.00 | 0.00 | 66 | 1009.9 |
| 20260505003504 | 80 | 169 | 8.0 | 17.0 | 0.00 | 0.00 | 0.00 | 65 | 1009.9 |
| 20260505003004 | 80 | 162 | 8.0 | 18.0 | 0.00 | 0.00 | 0.00 | 65 | 1009.9 |
| 20260505002504 | 80 | 168 | 10.0 | 20.0 | 0.00 | 0.00 | 0.00 | 64 | 1009.9 |
| 20260505002025 | 80 | 173 | 11.0 | 20.0 | 0.00 | 0.00 | 0.00 | 64 | 1009.9 |
| 20260505001525 | 80 | 165 | 10.0 | 19.0 | 0.00 | 0.00 | 0.00 | 63 | 1009.8 |
| 20260505001004 | 81 | 159 | 10.0 | 19.0 | 0.00 | 0.00 | 0.00 | 63 | 1009.9 |
| 20260505000504 | 81 | 164 | 10.0 | 17.0 | 0.00 | 0.00 | 0.00 | 63 | 1010.0 |
| 20260505000004 | 81 | 170 | 10.0 | 17.0 | 0.00 | 0.00 | 0.00 | 62 | 1010.0 |
| 20260504235525 | 81 | 170 | 10.0 | 18.0 | 0.00 | 0.00 | 0.00 | 62 | 1009.9 |
| 20260504235004 | 81 | 168 | 10.0 | 18.0 | 0.00 | 0.00 | 0.00 | 61 | 1010.0 |
| 20260504234504 | 81 | 169 | 10.0 | 20.0 | 0.00 | 0.00 | 0.00 | 61 | 1010.1 |
| 20260504234025 | 82 | 176 | 11.0 | 20.0 | 0.00 | 0.00 | 0.00 | 60 | 1010.2 |
| 20260504233504 | 82 | 178 | 10.0 | 20.0 | 0.00 | 0.00 | 0.00 | 60 | 1010.3 |
| 20260504233004 | 82 | 181 | 11.0 | 22.0 | 0.00 | 0.00 | 0.00 | 59 | 1010.3 |
| 20260504232504 | 82 | 180 | 12.0 | 22.0 | 0.00 | 0.00 | 0.00 | 60 | 1010.3 |
| 20260504232004 | 82 | 173 | 13.0 | 28.0 | 0.00 | 0.00 | 0.00 | 59 | 1010.3 |
| 20260504231504 | 82 | 168 | 12.0 | 28.0 | 0.00 | 0.00 | 0.00 | 59 | 1010.4 |
| 20260504231004 | 82 | 168 | 10.0 | 25.0 | 0.00 | 0.00 | 0.00 | 59 | 1010.4 |
| 20260504230503 | 82 | 169 | 11.0 | 20.0 | 0.00 | 0.00 | 0.00 | 59 | 1010.6 |
| 20260504230004 | 82 | 167 | 10.0 | 20.0 | 0.00 | 0.00 | 0.00 | 59 | 1010.7 |
| 20260504225504 | 82 | 166 | 10.0 | 19.0 | 0.00 | 0.00 | 0.00 | 58 | 1010.7 |
| 20260504225004 | 83 | 172 | 10.0 | 22.0 | 0.00 | 0.00 | 0.00 | 58 | 1010.8 |
| 20260504224504 | 83 | 173 | 11.0 | 23.0 | 0.00 | 0.00 | 0.00 | 58 | 1010.8 |
| 20260504224004 | 83 | 174 | 12.0 | 23.0 | 0.00 | 0.00 | 0.00 | 57 | 1010.8 |
| 20260504223525 | 83 | 170 | 12.0 | 23.0 | 0.00 | 0.00 | 0.00 | 58 | 1011.0 |
| 20260504223003 | 83 | 169 | 11.0 | 24.0 | 0.00 | 0.00 | 0.00 | 58 | 1010.8 |
| 20260504222504 | 83 | 166 | 11.0 | 24.0 | 0.00 | 0.00 | 0.00 | 58 | 1010.9 |
| 20260504222004 | 83 | 169 | 12.0 | 26.0 | 0.00 | 0.00 | 0.00 | 59 | 1010.9 |
| 20260504221524 | 83 | 171 | 12.0 | 26.0 | 0.00 | 0.00 | 0.00 | 59 | 1011.0 |
| 20260504221003 | 83 | 161 | 11.0 | 23.0 | 0.00 | 0.00 | 0.00 | 58 | 1011.1 |
| 20260504220503 | 83 | 163 | 11.0 | 19.0 | 0.00 | 0.00 | 0.00 | 59 | 1011.1 |
| 20260504220004 | 84 | 167 | 11.0 | 19.0 | 0.00 | 0.00 | 0.00 | 57 | 1011.1 |
| 20260504215504 | 84 | 171 | 11.0 | 23.0 | 0.00 | 0.00 | 0.00 | 58 | 1011.1 |
| 20260504215004 | 84 | 168 | 12.0 | 23.0 | 0.00 | 0.00 | 0.00 | 57 | 1011.1 |
| 20260504214504 | 85 | 165 | 11.0 | 25.0 | 0.00 | 0.00 | 0.00 | 58 | 1011.1 |
| 20260504214024 | 84 | 167 | 11.0 | 25.0 | 0.00 | 0.00 | 0.00 | 57 | 1011.2 |
| 20260504213524 | 84 | 169 | 11.0 | 24.0 | 0.00 | 0.00 | 0.00 | 57 | 1011.1 |
| 20260504213004 | 84 | 176 | 8.0 | 17.0 | 0.00 | 0.00 | 0.00 | 56 | 1011.3 |
| 20260504212504 | 84 | 168 | 10.0 | 19.0 | 0.00 | 0.00 | 0.00 | 58 | 1011.4 |
| 20260504212004 | 85 | 166 | 10.0 | 19.0 | 0.00 | 0.00 | 0.00 | 55 | 1011.4 |
| 20260504211504 | 85 | 170 | 10.0 | 19.0 | 0.00 | 0.00 | 0.00 | 56 | 1011.6 |
| 20260504211024 | 85 | 168 | 11.0 | 26.0 | 0.00 | 0.00 | 0.00 | 55 | 1011.5 |
| 20260504210504 | 85 | 159 | 11.0 | 26.0 | 0.00 | 0.00 | 0.00 | 55 | 1011.7 |
| 20260504210025 | 84 | 152 | 12.0 | 24.0 | 0.00 | 0.00 | 0.00 | 58 | 1011.8 |
| 20260504205503 | 84 | 158 | 11.0 | 20.0 | 0.00 | 0.00 | 0.00 | 57 | 1011.8 |
| 20260504205003 | 84 | 170 | 12.0 | 20.0 | 0.00 | 0.00 | 0.00 | 55 | 1011.9 |
| 20260504204525 | 84 | 171 | 12.0 | 22.0 | 0.00 | 0.00 | 0.00 | 57 | 1011.9 |
| 20260504204004 | 84 | 157 | 11.0 | 23.0 | 0.00 | 0.00 | 0.00 | 54 | 1012.0 |
| 20260504203504 | 85 | 161 | 10.0 | 23.0 | 0.00 | 0.00 | 0.00 | 56 | 1012.2 |
| 20260504203004 | 85 | 173 | 8.0 | 20.0 | 0.00 | 0.00 | 0.00 | 56 | 1012.3 |
| 20260504202504 | 84 | 165 | 10.0 | 26.0 | 0.00 | 0.00 | 0.00 | 56 | 1012.5 |
| 20260504202003 | 84 | 166 | 11.0 | 26.0 | 0.00 | 0.00 | 0.00 | 56 | 1012.6 |
| 20260504201504 | 84 | 176 | 10.0 | 25.0 | 0.00 | 0.00 | 0.00 | 58 | 1012.5 |
| 20260504201024 | 84 | 179 | 11.0 | 25.0 | 0.00 | 0.00 | 0.00 | 56 | 1012.5 |
| 20260504200503 | 84 | 169 | 11.0 | 24.0 | 0.00 | 0.00 | 0.00 | 56 | 1012.8 |
| 20260504200024 | 84 | 158 | 11.0 | 24.0 | 0.00 | 0.00 | 0.00 | 58 | 1012.8 |
| 20260504195503 | 84 | 159 | 10.0 | 20.0 | 0.00 | 0.00 | 0.00 | 58 | 1013.1 |
| 20260504195003 | 84 | 172 | 10.0 | 23.0 | 0.00 | 0.00 | 0.00 | 57 | 1013.1 |
| 20260504194504 | 83 | 167 | 11.0 | 23.0 | 0.00 | 0.00 | 0.00 | 58 | 1013.2 |
| 20260504194004 | 83 | 166 | 11.0 | 20.0 | 0.00 | 0.00 | 0.00 | 59 | 1013.1 |
| 20260504193504 | 83 | 172 | 10.0 | 20.0 | 0.00 | 0.00 | 0.00 | 59 | 1013.2 |
| 20260504193004 | 82 | 177 | 11.0 | 22.0 | 0.00 | 0.00 | 0.00 | 58 | 1013.4 |
| 20260504192503 | 82 | 170 | 11.0 | 22.0 | 0.00 | 0.00 | 0.00 | 60 | 1013.4 |
| 20260504192003 | 82 | 162 | 10.0 | 19.0 | 0.00 | 0.00 | 0.00 | 60 | 1013.4 |
| 20260504191503 | 82 | 170 | 10.0 | 18.0 | 0.00 | 0.00 | 0.00 | 62 | 1013.5 |
| 20260504191004 | 82 | 171 | 11.0 | 22.0 | 0.00 | 0.00 | 0.00 | 60 | 1013.7 |
| 20260504190504 | 82 | 172 | 10.0 | 22.0 | 0.00 | 0.00 | 0.00 | 60 | 1013.7 |
| 20260504190004 | 82 | 175 | 10.0 | 19.0 | 0.00 | 0.00 | 0.00 | 60 | 1013.8 |
| 20260504185503 | 82 | 175 | 11.0 | 20.0 | 0.00 | 0.00 | 0.00 | 62 | 1013.8 |
| 20260504185004 | 82 | 173 | 11.0 | 23.0 | 0.00 | 0.00 | 0.00 | 59 | 1013.8 |
| 20260504184503 | 82 | 173 | 11.0 | 23.0 | 0.00 | 0.00 | 0.00 | 58 | 1014.0 |
| 20260504184003 | 82 | 169 | 10.0 | 18.0 | 0.00 | 0.00 | 0.00 | 59 | 1014.1 |
| 20260504183524 | 82 | 174 | 10.0 | 19.0 | 0.00 | 0.00 | 0.00 | 59 | 1014.2 |
| 20260504183004 | 82 | 175 | 10.0 | 20.0 | 0.00 | 0.00 | 0.00 | 60 | 1014.3 |
| 20260504182525 | 81 | 166 | 11.0 | 22.0 | 0.00 | 0.00 | 0.00 | 60 | 1014.3 |
| 20260504182004 | 80 | 167 | 11.0 | 22.0 | 0.00 | 0.00 | 0.00 | 63 | 1014.3 |
| 20260504181504 | 80 | 166 | 11.0 | 25.0 | 0.00 | 0.00 | 0.00 | 61 | 1014.4 |
| 20260504181003 | 80 | 171 | 11.0 | 25.0 | 0.00 | 0.00 | 0.00 | 61 | 1014.3 |
| 20260504180504 | 81 | 175 | 11.0 | 24.0 | 0.00 | 0.00 | 0.00 | 60 | 1014.3 |
| 20260504180003 | 81 | 174 | 11.0 | 24.0 | 0.00 | 0.00 | 0.00 | 61 | 1014.5 |
| 20260504175524 | 81 | 176 | 10.0 | 22.0 | 0.00 | 0.00 | 0.00 | 62 | 1014.6 |
| 20260504175004 | 80 | 176 | 10.0 | 20.0 | 0.00 | 0.00 | 0.00 | 63 | 1014.7 |
| 20260504174504 | 79 | 172 | 10.0 | 20.0 | 0.00 | 0.00 | 0.00 | 64 | 1014.8 |
| 20260504174003 | 79 | 174 | 10.0 | 22.0 | 0.00 | 0.00 | 0.00 | 66 | 1015.1 |
| 20260504173503 | 77 | 180 | 6.0 | 22.0 | 0.00 | 0.00 | 0.00 | 69 | 1015.2 |
| 20260504173003 | 76 | 185 | 7.0 | 17.0 | 0.00 | 0.00 | 0.00 | 70 | 1015.3 |
| 20260504172503 | 76 | 189 | 10.0 | 17.0 | 0.00 | 0.00 | 0.00 | 70 | 1015.3 |
| 20260504172003 | 76 | 187 | 10.0 | 19.0 | 0.00 | 0.00 | 0.00 | 69 | 1015.4 |
| 20260504171503 | 75 | 184 | 10.0 | 20.0 | 0.00 | 0.00 | 0.00 | 69 | 1015.4 |
| 20260504171003 | 74 | 182 | 10.0 | 20.0 | 0.00 | 0.00 | 0.00 | 71 | 1015.4 |
| 20260504170525 | 74 | 187 | 8.0 | 19.0 | 0.00 | 0.00 | 0.00 | 71 | 1015.4 |
| 20260504151003 | 71 | 154 | 8.0 | 17.0 | 0.00 | 0.00 | 0.00 | 76 | 1016.4 |
| 20260504150503 | 70 | 150 | 7.0 | 17.0 | 0.00 | 0.00 | 0.00 | 76 | 1016.4 |
| 20260504141003 | 67 | 165 | 8.0 | 22.0 | 0.00 | 0.00 | 0.00 | 78 | 1016.6 |
| 20260504140524 | 67 | 163 | 8.0 | 22.0 | 0.00 | 0.00 | 0.00 | 78 | 1016.5 |
| 20260504130504 | 62 | 171 | 6.0 | 12.0 | 0.00 | 0.00 | 0.00 | 86 | 1016.5 |
| 20260504110504 | 58 | 159 | 0.0 | 4.0 | 0.00 | 0.00 | 0.00 | 82 | 1016.2 |
| 20260504100504 | 61 | 159 | 1.0 | 2.0 | 0.00 | 0.00 | 0.00 | 81 | 1016.3 |
| 20260504081503 | 63 | 153 | 2.0 | 6.0 | 0.00 | 0.00 | 0.00 | 77 | 1017.0 |
| 20260504081003 | 63 | 153 | 4.0 | 6.0 | 0.00 | 0.00 | 0.00 | 77 | 1017.0 |
| 20260504080524 | 63 | 153 | 4.0 | 7.0 | 0.00 | 0.00 | 0.00 | 77 | 1017.0 |